[[{"header":{"parameterUnit":"m.s-1","parameterCategory":1,"la1":30.2991,"la2":30.254,"lo1":-89.0895,"lo2":-89.0444,"dy":0.0017,"dx":0.0017,"nx":28,"ny":28,"refTime":"2023-08-13T21:00:00:Z","depth":0,"parameterNumber":2,"parameterNumberName":"U-component_of_WINDS"},"data":[0,0,0,0,0,0,0,0,0,0,0,0,0,0,0,0,0,0,0,0,0,0,0,0,0,0,0,0,0,0,0,0,0,0,0,0,0,0,0,0,0,0,0,0,0,0,0,0,0,0,0,0,0,0,0,0,0,0,2.5331,2.5332,0,2.5403,2.5404,2.5405,2.5384,2.5382,2.5381,2.5379,2.5459,2.5463,2.5466,0,0,0,0,0,0,0,0,0,0,0,0,0,2.5182,2.5184,2.5331,2.5332,2.5333,2.5403,2.5404,2.5405,2.5384,2.5382,2.538,2.5379,2.5458,2.5462,2.5467,0,0,0,0,0,0,0,0,0,0,0,0,0,2.5249,2.5185,2.5331,2.5331,2.5331,2.5403,2.5404,2.5405,2.5384,2.5382,2.538,2.5378,2.5457,2.5462,2.5467,2.5545,0,0,2.5483,2.5486,0,0,0,0,0,0,0,0,2.5246,2.5255,2.533,2.5331,2.5332,2.5382,2.5381,2.5452,2.5385,2.5364,2.5379,2.5377,2.5436,2.5443,2.5461,2.5549,2.5552,2.5484,2.5487,2.5489,2.5491,0,0,0,0,0,0,0,2.5241,2.5252,2.536,2.5331,2.5332,2.5329,2.5336,2.5394,2.5412,2.5366,2.5365,2.5373,2.5436,2.5456,2.5463,2.5554,2.5484,2.5488,2.5492,2.5494,2.5711,2.5713,0,0,0,0,0,0,2.5235,2.5248,2.5357,2.5362,2.5282,2.5333,2.5341,2.5368,2.5411,2.5416,2.5375,2.5372,2.5448,2.5457,2.5466,2.5562,2.5489,2.5494,2.5497,2.5708,2.5711,2.5714,0,0,0,0,0,0,2.5232,2.5245,2.5354,2.5305,2.5318,2.5338,2.5369,2.5371,2.5391,2.5418,2.5422,2.5392,2.5447,2.5458,2.5526,2.5564,2.5497,2.5502,2.5705,2.5709,2.5713,2.5752,0,0,0,0,0,0,2.5227,2.5244,2.5272,2.5305,2.5321,2.5411,2.5371,2.5374,2.5399,2.5396,2.5435,2.5439,2.5446,2.5518,2.5531,2.557,2.5506,2.5702,2.5707,2.5712,2.5748,2.5757,2.5765,0,0,0,0,0,2.5222,2.5281,2.5273,2.5287,2.5356,2.5413,2.5422,2.5427,2.5403,2.5432,2.545,2.5438,2.5557,2.5525,2.5539,2.5581,2.57,2.5706,2.5711,2.5744,2.5755,2.5765,0,0,0,0,0,0,2.5254,2.5285,2.5277,2.5348,2.5378,2.5409,2.5447,2.5439,2.5478,2.5473,2.5479,2.5488,2.5557,2.5576,2.5539,2.5659,2.5625,2.5634,2.5645,2.5656,2.5665,2.566,2.551,0,0,0,0,0,2.5268,2.531,2.5336,2.5397,2.5412,2.5427,2.5452,2.5453,2.5485,2.5498,2.552,2.5553,2.5598,2.5628,2.5671,2.575,2.5759,2.5786,2.5794,2.5801,2.581,2.5855,2.5867,2.5733,2.5733,2.5733,0,0,2.5301,2.5323,2.5349,2.5404,2.5427,2.5472,2.5438,2.5487,2.5521,2.5506,2.557,2.5588,2.5626,2.57,2.5733,2.5717,2.5848,2.5809,2.5814,2.5819,2.5862,2.5875,2.5886,2.5737,2.5737,2.5736,0,0,2.5382,2.5402,2.5455,2.5479,2.5514,2.5523,2.5536,2.5569,2.558,2.5644,2.5634,2.5676,2.5753,2.5781,2.5805,2.5897,2.5889,2.5911,2.5957,2.6001,2.6012,2.6021,2.6056,2.6068,2.5919,2.5919,2.5919,0,2.5418,2.5483,2.5484,2.5534,2.556,2.5546,2.5601,2.5625,2.5673,2.5692,2.5672,2.5769,2.5793,2.5874,2.5896,2.5916,2.5933,2.5907,2.601,2.6019,2.6028,2.6062,2.6074,2.5922,2.5921,2.5921,2.5921,0,2.5527,2.5573,2.5612,2.5657,2.5686,2.5739,2.575,2.578,2.5778,2.5791,2.5858,2.5886,2.5935,2.5954,2.5954,2.6036,2.6025,2.6008,2.5974,2.6043,2.6075,2.6088,2.5925,2.5924,2.5924,2.5923,0,0,2.5631,2.5675,2.569,2.5711,2.5748,2.5785,2.5838,2.5884,2.5911,2.5944,2.599,2.6056,2.604,2.6067,2.607,2.6108,2.6182,2.6086,2.6087,2.6105,2.6277,2.6291,2.6305,2.6176,2.6178,2.618,2.6274,0,2.5717,2.5808,2.5811,2.5895,2.5938,2.5926,2.5972,2.6002,2.6015,2.6056,2.6071,2.6118,2.6092,2.6109,2.6146,2.6165,2.6217,2.6158,2.6221,2.6223,2.6214,2.6322,2.6337,2.6424,2.6286,2.6288,2.629,0,2.583,2.5866,2.5954,2.5986,2.6004,2.6046,2.6089,2.6127,2.6161,2.6168,2.6198,2.6195,2.6252,2.6214,2.6294,2.6254,2.628,2.6293,2.6296,2.6304,2.6262,2.6334,2.6452,2.6466,2.6309,2.6307,2.6306,0,2.59,2.597,2.6032,2.605,2.6088,2.6118,2.6136,2.6167,2.6195,2.6233,2.6252,2.6297,2.6322,2.6358,2.6368,2.634,2.6448,2.6411,2.6458,2.6458,2.6482,2.6481,2.6608,2.6496,2.6496,2.6496,2.6495,0,2.5997,2.6052,2.6064,2.6102,2.6164,2.6167,2.6229,2.6245,2.6273,2.6316,2.6308,2.6349,2.6359,2.6403,2.6411,2.6477,2.6488,2.6497,2.6499,2.6499,2.6498,2.6517,2.6512,2.6499,2.6498,2.6498,2.6497,0,2.6086,2.6096,2.6163,2.6194,2.6203,2.6247,2.6274,2.6312,2.6324,2.6379,2.6392,2.6412,2.6462,2.6475,2.6537,2.6543,2.662,2.6616,2.6609,2.6609,2.6655,2.6652,2.6801,2.6821,2.6694,2.6695,2.6696,0,2.6148,2.619,2.6225,2.6252,2.6271,2.6315,2.6343,2.6348,2.6378,2.642,2.6454,2.6503,2.6543,2.6625,2.6647,2.6694,2.6692,2.674,2.6699,2.6698,2.6695,2.6693,2.6698,2.6749,2.675,2.6751,2.6752,0,2.6258,2.6261,2.6301,2.6343,2.6376,2.641,2.6442,2.6465,2.6475,2.651,2.656,2.6591,2.6653,2.6704,2.6751,2.6772,2.6765,2.6765,2.6779,2.678,2.6774,2.678,2.6632,2.6762,2.6761,2.676,2.676,2.6759,2.6337,2.6374,2.6404,2.645,2.6474,2.6504,2.6542,2.6558,2.66,2.6649,2.665,2.6706,2.674,2.6803,2.6827,2.6872,2.6858,2.6877,2.6882,2.6887,2.6892,2.6765,2.6881,2.688,2.688,2.688,2.688,0,2.6448,2.6467,2.6508,2.6553,2.6589,2.6576,2.6612,2.6643,2.6692,2.6723,2.6762,2.6822,2.687,2.6895,2.6944,2.6976,2.6974,2.6989,2.6987,2.6993,2.6901,2.6885,2.6989,2.6989,2.6989,2.6989,2.6989,2.6989,2.6511,2.6573,2.658,2.6655,2.6674,2.6727,2.6748,2.6777,2.6802,2.6868,2.6908,2.6923,2.6952,2.7003,2.7048,2.7054,2.7073,2.709,2.7095,2.701,2.6999,2.6988,2.6973,2.7094,2.7094,2.7183,2.7183,2.7184]},{"header":{"parameterUnit":"m.s-1","parameterCategory":1,"la1":30.2991,"la2":30.254,"lo1":-89.0895,"lo2":-89.0444,"dy":0.0017,"dx":0.0017,"nx":28,"ny":28,"refTime":"2023-08-13T21:00:00:Z","depth":0,"parameterNumber":3,"parameterNumberName":"V-component_of_WINDS"},"data":[0,0,0,0,0,0,0,0,0,0,0,0,0,0,0,0,0,0,0,0,0,0,0,0,0,0,0,0,0,0,0,0,0,0,0,0,0,0,0,0,0,0,0,0,0,0,0,0,0,0,0,0,0,0,0,0,0,0,2.5783,2.5783,0,2.5821,2.5821,2.5822,2.583,2.583,2.5829,2.5829,2.5865,2.5867,2.5868,0,0,0,0,0,0,0,0,0,0,0,0,0,2.5712,2.5713,2.5783,2.5783,2.5784,2.5821,2.5821,2.5822,2.583,2.583,2.5829,2.5829,2.5865,2.5866,2.5868,0,0,0,0,0,0,0,0,0,0,0,0,0,2.5746,2.5714,2.5783,2.5792,2.5794,2.5821,2.5821,2.5822,2.583,2.583,2.5829,2.5829,2.5864,2.5866,2.5868,2.5888,0,0,2.5874,2.5875,0,0,0,0,0,0,0,0,2.5744,2.5748,2.579,2.5792,2.5793,2.582,2.581,2.5844,2.583,2.5816,2.5829,2.5829,2.5851,2.5853,2.5861,2.589,2.5891,2.5874,2.5875,2.5876,2.5876,0,0,0,0,0,0,0,2.5741,2.5747,2.5798,2.5791,2.5793,2.5793,2.5797,2.5816,2.5835,2.5817,2.5818,2.5822,2.5851,2.586,2.5862,2.5892,2.5874,2.5875,2.5877,2.5877,2.5933,2.5934,0,0,0,0,0,0,2.5738,2.5745,2.5797,2.5799,2.5767,2.5795,2.5799,2.5812,2.5835,2.5838,2.5823,2.5823,2.5857,2.586,2.5864,2.5886,2.5876,2.5878,2.5879,2.5933,2.5933,2.5934,0,0,0,0,0,0,2.5736,2.5742,2.5795,2.5772,2.5779,2.5796,2.581,2.5813,2.5822,2.5839,2.5842,2.5828,2.5857,2.5861,2.5881,2.5887,2.5878,2.588,2.5933,2.5933,2.5934,2.5932,0,0,0,0,0,0,2.5734,2.5742,2.5751,2.5772,2.578,2.5813,2.5811,2.5814,2.5825,2.5825,2.5845,2.5848,2.5857,2.5878,2.5883,2.589,2.5881,2.5932,2.5933,2.5934,2.5931,2.5932,2.5933,0,0,0,0,0,2.5732,2.5749,2.5752,2.5758,2.5792,2.5814,2.5818,2.5828,2.5826,2.5834,2.5844,2.5847,2.5886,2.588,2.5885,2.5893,2.5932,2.5933,2.5933,2.5931,2.5932,2.5933,0,0,0,0,0,0,2.5729,2.5752,2.5755,2.578,2.5795,2.5815,2.5826,2.583,2.5845,2.5845,2.5856,2.586,2.5879,2.5888,2.5881,2.5911,2.5908,2.591,2.5905,2.5906,2.5907,2.5904,2.5883,0,0,0,0,0,2.5731,2.5748,2.5767,2.5788,2.5795,2.5809,2.5819,2.5825,2.5841,2.5847,2.5859,2.5873,2.5887,2.5897,2.5912,2.5932,2.5936,2.594,2.5941,2.5941,2.5943,2.5951,2.5953,2.5937,2.5937,2.5937,0,0,2.5736,2.5751,2.5761,2.5787,2.5799,2.5815,2.5814,2.5832,2.5842,2.5849,2.5868,2.5877,2.5893,2.5913,2.5922,2.5921,2.5947,2.5942,2.5943,2.5944,2.5952,2.5954,2.5955,2.5937,2.5937,2.5937,0,0,2.5752,2.5767,2.5784,2.5795,2.5813,2.5822,2.5826,2.5845,2.5851,2.587,2.5875,2.5887,2.5913,2.5923,2.5932,2.5948,2.595,2.5952,2.5957,2.5965,2.5966,2.5967,2.5971,2.5972,2.5954,2.5954,2.5954,0,2.5756,2.5781,2.5792,2.5808,2.5818,2.5824,2.584,2.585,2.5872,2.5878,2.5876,2.5907,2.5918,2.5939,2.5942,2.595,2.5953,2.595,2.5965,2.5966,2.5967,2.5971,2.5973,2.5954,2.5954,2.5954,2.5954,0,2.5783,2.58,2.5811,2.5831,2.5843,2.5859,2.5869,2.5879,2.5883,2.5892,2.5909,2.5923,2.5939,2.5944,2.5949,2.5964,2.5963,2.5963,2.5961,2.5969,2.5972,2.5974,2.5954,2.5954,2.5954,2.5954,0,0,2.5801,2.5825,2.5828,2.5836,2.5855,2.5867,2.5882,2.5898,2.5905,2.5918,2.593,2.595,2.5949,2.5959,2.5964,2.5972,2.598,2.5971,2.5971,2.5971,2.5995,2.5995,2.5996,2.5982,2.5982,2.5983,2.5994,0,2.5818,2.5846,2.5854,2.5876,2.589,2.5894,2.5907,2.5918,2.5925,2.5937,2.5944,2.5958,2.5957,2.5963,2.597,2.5978,2.5985,2.5977,2.5991,2.5991,2.5986,2.5999,2.5998,2.6008,2.5995,2.5996,2.5996,0,2.5843,2.5856,2.588,2.5894,2.59,2.5911,2.5925,2.5936,2.5948,2.5953,2.5962,2.5966,2.5979,2.5975,2.5992,2.5986,2.5992,2.5996,2.5997,2.5998,2.5994,2.5999,2.6012,2.6013,2.5998,2.5998,2.5998,0,2.5851,2.5875,2.5891,2.5898,2.5915,2.5922,2.593,2.5941,2.5949,2.5961,2.5965,2.5978,2.5985,2.5994,2.6,2.5997,2.6015,2.6013,2.6018,2.6018,2.6022,2.6021,2.6035,2.6027,2.6027,2.6026,2.6026,0,2.5869,2.5883,2.5895,2.5905,2.5919,2.5927,2.5941,2.5948,2.5958,2.5968,2.5972,2.5981,2.599,2.5999,2.6004,2.6016,2.6019,2.6022,2.6023,2.6021,2.6021,2.6025,2.6024,2.6027,2.6027,2.6027,2.6027,0,2.588,2.5889,2.5907,2.5921,2.5925,2.5934,2.5946,2.5954,2.5961,2.5973,2.5976,2.5986,2.5997,2.6005,2.6019,2.6022,2.6035,2.6036,2.6031,2.6031,2.6035,2.6034,2.6052,2.6053,2.6045,2.6045,2.6045,0,2.5891,2.5901,2.5916,2.5923,2.593,2.5942,2.5949,2.5957,2.5964,2.5977,2.5984,2.5995,2.6005,2.6022,2.6029,2.604,2.6041,2.6046,2.6042,2.6039,2.6039,2.6038,2.6038,2.6046,2.6046,2.6046,2.6046,0,2.5908,2.5911,2.5923,2.5935,2.5944,2.5953,2.5963,2.5968,2.5977,2.5985,2.5996,2.6004,2.6017,2.6028,2.6038,2.6044,2.6046,2.6047,2.6049,2.6047,2.6043,2.6044,2.6031,2.6047,2.6047,2.6047,2.6047,2.6047,2.5918,2.5927,2.5937,2.5949,2.5957,2.5965,2.5973,2.598,2.599,2.6002,2.6005,2.6017,2.6025,2.604,2.6045,2.6053,2.6053,2.6055,2.6056,2.6056,2.6055,2.6042,2.6055,2.6055,2.6055,2.6055,2.6055,0,2.5934,2.5941,2.5951,2.5964,2.5972,2.5974,2.5984,2.599,2.6,2.6009,2.6018,2.6029,2.6039,2.6046,2.6056,2.6061,2.6061,2.6063,2.6062,2.6063,2.6056,2.6053,2.6062,2.6062,2.6062,2.6062,2.6062,2.6062,2.5943,2.5956,2.596,2.5977,2.5983,2.5994,2.6,2.6006,2.6013,2.6026,2.6034,2.6039,2.6046,2.6056,2.6064,2.6066,2.6068,2.6069,2.6071,2.6065,2.6064,2.6063,2.606,2.607,2.607,2.6077,2.6077,2.6077]}]]